TimeMST,TemperatureF,Dew PointF,Humidity,Sea Level PressureIn,VisibilityMPH,Wind Direction,Wind SpeedMPH,Gust SpeedMPH,PrecipitationIn,Events,Conditions,WindDirDegrees,DateUTC
12:53 AM,28.0,19.9,72,29.89,10.0,NNW,10.4,-,N/A,,Clear,330,2013-12-22 07:53:00
1:53 AM,25.0,18.0,75,29.91,10.0,SW,3.5,-,N/A,,Partly Cloudy,230,2013-12-22 08:53:00
2:53 AM,27.0,19.0,72,29.95,10.0,NNW,6.9,-,N/A,,Mostly Cloudy,330,2013-12-22 09:53:00
3:03 AM,27.0,18.0,69,29.99,10.0,NNW,5.8,-,N/A,,Partly Cloudy,330,2013-12-22 10:03:00
3:53 AM,26.1,18.0,71,29.96,10.0,Calm,Calm,-,N/A,,Scattered Clouds,0,2013-12-22 10:53:00
4:53 AM,23.0,16.0,74,30.00,10.0,Calm,Calm,-,N/A,,Clear,0,2013-12-22 11:53:00
5:53 AM,21.0,15.1,78,30.04,10.0,Calm,Calm,-,N/A,,Clear,0,2013-12-22 12:53:00
6:53 AM,19.9,14.0,78,30.09,10.0,Calm,Calm,-,N/A,,Clear,0,2013-12-22 13:53:00
7:53 AM,19.0,14.0,81,30.13,10.0,Calm,Calm,-,N/A,,Clear,0,2013-12-22 14:53:00
8:53 AM,25.0,18.0,75,30.13,10.0,Calm,Calm,-,N/A,,Clear,0,2013-12-22 15:53:00
9:53 AM,30.9,19.0,61,30.14,10.0,North,3.5,-,N/A,,Clear,350,2013-12-22 16:53:00
10:53 AM,32.0,18.0,56,30.15,10.0,Variable,3.5,-,N/A,,Clear,0,2013-12-22 17:53:00
11:53 AM,35.1,18.0,50,30.13,10.0,WSW,3.5,-,N/A,,Clear,250,2013-12-22 18:53:00
12:53 PM,37.9,17.1,43,30.10,10.0,Variable,3.5,-,N/A,,Clear,0,2013-12-22 19:53:00
1:53 PM,41.0,18.0,40,30.09,10.0,West,10.4,16.1,N/A,,Mostly Cloudy,260,2013-12-22 20:53:00
2:53 PM,41.0,17.1,38,30.08,10.0,WSW,6.9,-,0.00,,Clear,240,2013-12-22 21:53:00
3:53 PM,41.0,15.1,35,30.09,10.0,West,9.2,-,N/A,,Clear,280,2013-12-22 22:53:00
4:53 PM,37.0,12.0,36,30.16,10.0,NW,5.8,-,N/A,,Clear,320,2013-12-22 23:53:00
5:53 PM,30.0,14.0,51,30.22,10.0,Calm,Calm,-,N/A,,Clear,0,2013-12-23 00:53:00
6:53 PM,28.0,14.0,56,30.26,10.0,Calm,Calm,-,N/A,,Clear,0,2013-12-23 01:53:00
7:53 PM,25.0,14.0,63,30.30,10.0,Calm,Calm,-,N/A,,Clear,0,2013-12-23 02:53:00
8:53 PM,25.0,14.0,63,30.31,10.0,North,4.6,-,N/A,,Clear,350,2013-12-23 03:53:00
9:53 PM,21.9,14.0,72,30.30,10.0,Calm,Calm,-,N/A,,Clear,0,2013-12-23 04:53:00
10:53 PM,19.9,14.0,78,30.33,10.0,Calm,Calm,-,N/A,,Clear,0,2013-12-23 05:53:00
11:53 PM,21.0,12.9,71,30.32,10.0,Calm,Calm,-,N/A,,Clear,0,2013-12-23 06:53:00